Wind_Speed
64 70 76 76 77 67 47 28 9 12 32 55 65 77 83 81 84 84 85 90 99 106 117 112 112 104 110 106 103 102 95 85 100 91 93 101 96 91 94 91 89 84 83 80 76
60 66 71 75 74 75 65 44 28 8 12 38 55 63 75 77 75 78 81 82 87 96 109 114 117 115 110 111 105 101 101 105 100 95 101 106 102 103 94 92 90 93 87 90 85
54 58 64 69 68 70 72 62 44 27 9 19 40 50 62 72 72 70 73 77 80 83 89 94 100 105 110 107 108 108 100 109 112 108 101 107 109 110 99 93 92 91 92 94 93
48 53 56 62 65 62 65 64 57 43 20 5 19 35 48 60 66 67 66 68 73 77 79 81 85 89 91 96 103 108 110 111 118 115 114 112 115 114 108 94 99 99 104 100 96
44 46 50 52 57 59 56 58 56 54 41 23 4 13 29 47 58 63 65 65 66 68 73 78 80 81 85 89 95 92 103 105 114 114 113 116 116 119 117 119 114 104 105 110 104
40 42 44 45 47 51 52 50 52 52 47 42 28 10 11 28 45 55 60 64 66 68 69 70 71 78 82 85 89 92 93 98 103 117 120 117 120 125 122 125 123 122 118 113 106
38 38 38 40 40 42 44 44 43 45 45 45 37 30 15 1 21 38 50 58 62 65 68 71 72 74 76 79 82 87 88 90 92 99 105 111 114 111 113 122 131 130 126 131 119
34 35 35 35 35 36 36 37 35 36 38 40 39 35 28 20 7 6 19 34 48 57 63 68 71 74 77 80 80 81 84 88 93 99 104 109 104 104 111 115 121 129 128 135 130
32 32 30 30 31 31 30 31 31 30 30 33 33 34 29 27 20 15 9 7 14 23 32 47 62 70 77 80 82 86 85 85 89 96 101 107 98 101 109 114 115 119 120 125 130
32 28 27 26 25 28 28 26 26 27 25 25 26 29 30 27 23 22 20 15 11 8 13 26 35 43 55 68 79 84 85 87 89 97 101 101 97 99 106 111 110 110 111 111 110
33 29 26 25 24 24 25 24 22 22 22 21 22 23 24 26 27 25 24 21 19 18 19 18 16 26 41 45 50 57 70 82 91 99 102 104 102 99 105 109 109 110 111 109 109
33 30 32 26 25 21 21 22 19 20 21 19 20 20 20 20 24 28 26 26 27 26 26 28 28 27 22 31 48 53 56 59 66 79 92 95 106 106 111 112 112 110 111 111 111
35 35 32 32 27 23 20 20 20 19 19 19 19 18 20 20 21 24 29 27 28 31 32 34 33 38 37 33 33 47 55 59 65 74 78 91 101 106 113 113 119 116 115 114 115
39 39 36 32 32 27 22 20 20 22 19 17 19 18 19 21 23 24 28 33 32 32 36 39 39 40 46 46 41 37 49 53 57 67 80 96 94 93 95 108 120 119 120 121 119
38 38 39 35 32 30 26 22 21 23 24 21 19 18 18 22 22 24 26 32 35 36 37 44 43 48 47 54 54 48 44 49 57 67 77 79 86 76 91 93 100 112 120 122 121
44 37 40 39 35 31 29 25 22 25 26 27 23 21 20 22 26 27 27 31 39 40 42 43 47 52 57 61 64 57 49 53 60 61 66 63 75 58 74 84 93 101 106 113 121
47 43 40 40 38 35 32 28 25 25 27 29 27 27 27 26 28 31 32 32 37 39 46 46 48 53 55 59 67 66 57 58 58 56 51 59 55 42 63 75 84 96 95 95 104
53 48 41 42 40 38 36 31 30 28 32 31 30 28 31 32 33 34 35 35 39 44 45 49 49 57 60 65 68 72 63 66 57 45 45 50 46 52 57 65 69 76 84 88 94
55 53 44 43 42 40 38 37 33 31 34 36 34 32 29 32 35 37 38 38 41 45 48 53 52 59 61 68 71 76 65 69 58 43 37 44 50 50 59 60 64 60 67 79 86
57 52 52 43 45 45 43 42 38 35 34 39 39 36 36 34 36 37 40 41 43 49 53 56 58 63 66 70 76 78 67 68 54 43 35 36 45 53 52 55 64 65 60 64 73
58 56 54 50 44 48 48 46 43 40 38 39 40 40 39 38 41 42 42 44 46 51 56 60 64 68 70 74 78 77 72 64 49 46 38 33 41 52 54 56 59 65 59 59 64
59 58 55 50 44 47 51 51 49 47 43 42 42 42 41 42 43 43 45 45 48 53 58 64 65 69 72 78 82 74 72 57 46 42 39 36 38 42 52 51 47 53 56 60 58
62 59 55 48 45 45 50 54 54 51 50 45 43 43 42 44 43 44 46 47 49 54 59 65 66 70 76 80 86 72 66 50 42 37 38 31 34 39 42 42 46 50 52 56 58
63 60 56 48 43 41 48 52 57 56 54 51 47 42 42 44 44 46 47 48 50 55 61 67 69 71 74 81 84 71 60 44 34 33 27 29 29 33 36 34 37 42 48 51 52
59 61 63 50 42 40 43 49 56 59 58 55 50 44 43 44 44 47 48 49 51 54 62 66 69 72 74 81 80 72 55 41 32 25 23 24 20 24 27 30 29 27 34 42 45
61 62 57 51 46 39 38 46 53 59 61 58 54 48 47 43 46 49 49 49 53 57 63 67 69 73 75 84 74 66 49 34 27 26 24 20 12 13 15 18 20 21 25 34 37
60 57 53 52 47 40 40 41 47 56 62 60 56 51 47 45 48 50 49 52 54 58 62 67 68 71 77 78 71 60 42 26 22 20 18 17 12 11 9 11 14 18 20 25 30
Wind_Direction
11 13 18 21 27 29 29 27 6 231 218 212 214 218 220 224 225 227 229 230 231 230 231 234 229 231 229 235 237 239 236 240 239 243 238 243 244 247 252 251 250 250 252 251 247
13 12 15 20 26 32 33 35 37 38 210 207 211 216 218 222 225 227 229 231 232 233 233 237 236 236 233 234 236 233 235 234 236 237 237 240 247 251 250 247 251 248 248 253 251
14 14 14 19 25 31 35 36 40 43 61 203 212 219 218 221 225 227 230 231 233 235 235 236 238 239 240 241 231 233 235 235 241 233 232 238 245 245 247 246 247 245 246 248 253
16 16 17 16 22 30 36 38 41 45 51 105 213 223 224 222 225 229 232 233 235 236 238 239 239 240 241 242 242 239 238 239 241 239 239 243 245 242 242 241 243 245 246 246 248
14 17 16 19 19 24 32 39 41 45 47 52 100 218 227 227 227 230 233 236 238 239 240 240 241 242 242 242 243 243 243 241 242 241 243 245 249 247 246 245 247 241 243 244 245
12 12 18 17 20 20 24 34 41 45 45 48 51 61 218 226 230 233 236 239 240 242 242 242 243 245 246 246 244 243 245 246 245 244 246 247 246 247 249 247 247 250 243 241 243
7 13 11 17 18 20 22 25 35 40 45 46 48 50 54 154 236 239 241 243 245 246 246 246 247 246 246 248 249 249 247 247 246 246 247 247 247 250 251 249 247 249 247 245 245
357 6 11 8 13 15 20 23 28 34 35 37 41 48 46 38 33 251 246 248 248 249 250 250 250 250 250 250 249 249 248 248 249 247 246 247 246 248 251 253 251 249 248 250 254
345 355 4 7 7 9 12 17 20 22 29 29 28 35 40 43 37 24 5 311 270 255 253 253 252 251 251 251 251 251 250 249 250 251 250 250 247 250 250 252 253 252 252 252 253
336 343 351 358 2 2 5 7 11 14 16 22 25 21 26 31 36 31 20 8 354 341 294 266 262 258 254 254 253 252 252 253 252 255 252 251 247 247 249 250 251 252 251 250 251
328 332 340 345 349 349 353 357 2 7 9 4 13 12 18 17 17 15 16 10 11 3 352 332 323 298 268 262 258 255 253 251 250 251 252 253 249 248 249 251 251 250 250 248 248
322 323 326 331 337 336 335 342 345 354 354 355 350 2 358 6 3 4 1 359 356 352 348 346 342 323 313 286 263 259 257 255 251 252 252 252 252 249 247 249 250 251 252 251 247
313 316 318 319 326 326 319 328 332 336 337 345 340 342 348 349 347 350 351 347 348 343 339 338 338 342 332 320 296 265 259 256 256 257 257 255 252 251 249 246 249 250 250 251 251
308 308 310 307 312 313 309 315 315 320 323 327 327 333 339 339 335 331 334 339 342 338 333 328 333 333 334 329 322 293 269 264 265 265 262 260 256 254 252 249 247 246 248 249 249
304 298 300 299 299 303 301 302 300 301 309 314 315 320 328 329 332 329 323 331 337 337 334 327 326 332 329 332 326 317 290 281 284 277 267 265 262 253 250 250 249 246 243 246 249
304 296 291 292 291 287 291 291 291 288 293 300 306 310 315 314 322 327 329 325 331 336 334 329 325 330 331 333 330 322 304 296 294 284 273 264 260 253 252 248 247 246 243 243 245
320 301 288 283 283 281 279 280 282 283 282 290 296 302 308 312 312 316 323 326 326 328 334 330 323 326 325 327 329 325 312 307 303 290 276 261 261 248 246 247 244 245 244 242 243
318 319 292 278 279 275 271 273 274 276 278 282 289 292 298 303 306 308 314 322 323 325 328 330 323 324 325 326 328 328 319 314 303 289 272 262 256 248 246 248 250 248 246 242 241
313 318 308 283 274 273 269 267 270 269 273 279 282 288 289 296 300 304 307 315 320 322 326 331 330 323 325 329 328 331 321 318 306 292 273 261 260 251 251 249 250 247 249 245 241
307 312 315 293 272 268 268 268 267 269 271 274 281 286 289 293 298 301 306 313 318 322 326 328 330 326 327 330 329 331 323 319 306 294 281 259 258 260 253 252 249 246 245 244 242
304 305 313 302 278 264 263 266 266 266 268 271 277 283 290 293 296 301 307 314 317 322 325 327 329 327 328 330 330 330 326 318 305 297 291 268 261 254 253 247 247 249 245 246 244
307 307 310 307 286 269 261 262 264 265 265 268 274 282 290 291 294 300 307 314 317 320 324 327 328 326 328 329 331 330 327 317 305 295 284 267 258 253 249 256 256 252 252 248 246
308 306 311 311 293 276 262 259 262 264 266 267 272 279 284 288 293 298 305 312 316 318 322 326 327 326 328 329 331 331 326 316 305 293 282 275 260 257 254 252 248 248 248 248 248
308 311 310 310 302 282 264 256 257 260 263 265 268 275 282 286 291 297 304 311 314 317 322 325 325 326 329 328 330 331 328 317 305 297 293 277 272 265 261 255 246 245 248 251 251
307 308 310 309 305 289 270 258 253 257 262 263 266 273 278 282 289 295 304 309 313 316 321 324 324 326 329 328 329 331 329 318 308 299 288 283 286 279 267 265 262 253 246 253 258
304 308 307 305 306 296 279 262 252 252 257 262 267 270 274 281 287 294 303 307 311 314 320 323 324 326 329 329 330 331 328 320 308 300 295 278 262 268 266 261 262 260 251 254 257
307 307 303 304 303 296 284 272 261 250 252 256 261 265 270 277 285 293 300 305 309 314 319 323 324 327 328 330 330 331 330 327 310 308 297 293 298 272 271 273 271 271 272 269 265
Height
10707 10692 10675 10657 10636 10617 10604 10597 10594 10597 10604 10617 10634 10650 10666 10679 10690 10702 10714 10723 10732 10744 10750 10756 10768 10780 10789 10793 10799 10809 10827 10833 10828 10826 10823 10806 10820 10831 10838 10851 10851 10863 10867 10875 10889
10710 10696 10682 10666 10648 10631 10617 10608 10603 10602 10607 10617 10631 10645 10660 10672 10684 10695 10704 10714 10720 10729 10738 10741 10756 10763 10770 10775 10787 10795 10809 10811 10804 10810 10813 10797 10809 10808 10822 10836 10847 10842 10855 10853 10868
10713 10702 10689 10676 10662 10647 10634 10623 10616 10615 10618 10625 10637 10647 10657 10668 10679 10687 10695 10704 10709 10717 10723 10731 10739 10746 10751 10759 10770 10778 10792 10788 10790 10792 10797 10790 10795 10785 10806 10824 10826 10830 10832 10840 10848
10716 10707 10697 10686 10675 10664 10652 10642 10634 10630 10631 10636 10643 10651 10658 10665 10675 10682 10688 10694 10700 10705 10711 10719 10724 10730 10735 10743 10747 10764 10771 10773 10767 10773 10778 10775 10763 10775 10787 10807 10803 10811 10812 10819 10829
10720 10711 10703 10694 10685 10676 10667 10658 10651 10646 10643 10643 10646 10652 10658 10665 10671 10678 10683 10688 10693 10697 10701 10706 10713 10717 10718 10724 10729 10737 10739 10748 10748 10750 10756 10754 10750 10750 10772 10777 10775 10789 10789 10798 10808
10722 10715 10708 10701 10693 10686 10679 10671 10665 10659 10655 10653 10651 10652 10656 10660 10665 10671 10675 10680 10684 10687 10690 10695 10698 10700 10703 10703 10710 10721 10723 10729 10733 10730 10731 10733 10733 10734 10753 10743 10750 10757 10769 10773 10787
10723 10717 10711 10705 10699 10693 10687 10681 10675 10670 10666 10662 10659 10658 10658 10659 10661 10665 10668 10671 10674 10676 10679 10683 10685 10687 10687 10687 10695 10698 10705 10708 10711 10709 10706 10704 10719 10731 10713 10714 10726 10735 10746 10750 10765
10723 10717 10712 10707 10702 10696 10692 10687 10683 10678 10673 10670 10666 10664 10662 10660 10660 10660 10660 10661 10663 10665 10668 10668 10671 10672 10673 10674 10680 10681 10686 10688 10684 10683 10679 10676 10714 10711 10697 10689 10704 10715 10724 10732 10740
10723 10717 10711 10707 10703 10698 10694 10689 10686 10682 10678 10674 10671 10668 10666 10664 10661 10659 10657 10656 10655 10655 10655 10654 10654 10655 10656 10658 10662 10663 10672 10675 10669 10662 10658 10660 10700 10695 10679 10672 10681 10696 10708 10716 10725
10720 10716 10710 10705 10701 10698 10694 10690 10686 10682 10680 10676 10672 10669 10666 10664 10663 10661 10658 10655 10652 10650 10649 10647 10643 10641 10643 10645 10644 10646 10651 10654 10653 10635 10636 10645 10678 10672 10659 10652 10663 10671 10679 10688 10697
10718 10713 10708 10703 10698 10695 10692 10688 10685 10681 10678 10675 10672 10668 10665 10662 10659 10657 10655 10653 10650 10647 10644 10640 10638 10633 10631 10630 10628 10626 10627 10629 10628 10619 10613 10620 10637 10646 10637 10629 10639 10644 10645 10660 10673
10713 10709 10705 10700 10695 10691 10688 10685 10682 10678 10674 10671 10668 10665 10662 10660 10657 10653 10649 10646 10643 10639 10635 10632 10629 10624 10621 10617 10614 10611 10610 10609 10606 10594 10593 10590 10599 10618 10616 10611 10609 10616 10615 10624 10640
10706 10703 10699 10695 10692 10687 10683 10679 10676 10674 10671 10667 10664 10660 10657 10653 10651 10648 10645 10641 10637 10633 10627 10623 10620 10614 10609 10603 10599 10596 10594 10591 10589 10575 10576 10564 10563 10582 10588 10589 10581 10588 10587 10591 10605
10700 10694 10693 10687 10685 10682 10677 10674 10670 10667 10666 10664 10659 10656 10652 10649 10644 10640 10636 10632 10629 10624 10619 10611 10608 10602 10595 10589 10583 10579 10570 10572 10568 10559 10551 10533 10541 10553 10558 10551 10552 10563 10563 10566 10572
10691 10688 10682 10679 10676 10673 10671 10668 10664 10660 10657 10656 10653 10650 10646 10642 10639 10634 10630 10625 10620 10614 10609 10601 10595 10590 10583 10575 10567 10561 10553 10547 10540 10528 10518 10514 10502 10535 10518 10525 10529 10528 10535 10540 10555
10680 10678 10673 10670 10667 10664 10661 10659 10657 10653 10649 10645 10644 10641 10639 10635 10631 10627 10623 10617 10610 10604 10599 10592 10582 10572 10561 10556 10549 10542 10533 10523 10511 10501 10493 10486 10471 10508 10496 10498 10496 10495 10505 10518 10523
10668 10667 10663 10659 10657 10653 10651 10649 10648 10645 10642 10638 10634 10630 10627 10624 10621 10616 10613 10609 10604 10599 10589 10580 10571 10564 10558 10549 10534 10521 10510 10501 10490 10474 10473 10458 10466 10482 10463 10460 10466 10467 10484 10501 10506
10657 10654 10650 10646 10645 10642 10640 10639 10636 10635 10633 10630 10626 10623 10618 10614 10610 10606 10603 10599 10593 10587 10581 10575 10565 10552 10543 10534 10521 10504 10490 10475 10464 10458 10450 10445 10454 10449 10447 10443 10448 10457 10466 10476 10478
10642 10640 10636 10633 10631 10629 10628 10626 10625 10625 10622 10619 10616 10613 10611 10607 10601 10597 10594 10589 10584 10577 10570 10562 10552 10541 10532 10519 10501 10489 10471 10457 10442 10438 10437 10430 10430 10433 10428 10433 10429 10438 10445 10452 10461
10628 10627 10622 10618 10616 10615 10614 10613 10612 10612 10610 10607 10604 10601 10598 10596 10593 10588 10583 10577 10571 10563 10555 10548 10540 10526 10514 10502 10484 10469 10455 10440 10425 10420 10422 10420 10415 10412 10415 10416 10415 10416 10425 10431 10438
10616 10610 10607 10601 10599 10598 10598 10599 10598 10598 10597 10595 10592 10589 10586 10583 10578 10575 10571 10565 10557 10550 10542 10532 10520 10506 10498 10486 10472 10454 10437 10421 10410 10402 10400 10402 10400 10393 10393 10394 10398 10401 10415 10417 10422
10604 10598 10592 10584 10582 10581 10581 10582 10583 10584 10585 10582 10580 10577 10575 10572 10567 10562 10557 10551 10545 10536 10527 10518 10509 10495 10484 10468 10457 10440 10423 10406 10396 10390 10385 10385 10384 10386 10382 10388 10394 10395 10399 10402 10407
10587 10583 10578 10571 10565 10564 10563 10564 10565 10567 10567 10569 10567 10566 10564 10561 10557 10552 10546 10540 10534 10526 10518 10509 10498 10484 10466 10452 10439 10425 10409 10394 10384 10378 10372 10372 10371 10370 10374 10377 10377 10380 10384 10385 10391
10569 10565 10561 10557 10551 10547 10545 10548 10549 10551 10551 10552 10553 10553 10551 10549 10547 10542 10537 10531 10524 10515 10506 10496 10484 10472 10460 10440 10425 10411 10397 10382 10374 10366 10363 10359 10361 10362 10362 10365 10367 10370 10371 10373 10378
10556 10550 10543 10539 10538 10533 10530 10532 10534 10534 10534 10536 10538 10541 10539 10537 10535 10532 10527 10521 10514 10507 10497 10486 10473 10461 10450 10432 10413 10400 10385 10372 10364 10359 10354 10350 10353 10354 10355 10355 10359 10362 10364 10364 10365
10544 10538 10530 10526 10521 10518 10517 10516 10517 10519 10518 10521 10524 10527 10527 10526 10523 10520 10517 10511 10505 10497 10487 10475 10462 10448 10437 10419 10402 10389 10375 10365 10356 10350 10347 10345 10345 10344 10346 10347 10349 10351 10353 10353 10353
10530 10526 10518 10512 10508 10505 10502 10500 10500 10502 10503 10506 10511 10513 10514 10515 10513 10510 10506 10502 10495 10487 10479 10468 10455 10440 10424 10411 10394 10378 10368 10358 10350 10346 10344 10341 10342 10341 10342 10344 10346 10347 10348 10349 10349